Weather History for Newark Heath, OH

Change the Weather History Date:

Thursday, August 14, 2014

  Actual Average Record
Temperature  
Mean Temperature 64 °F -  
Max Temperature 73 °F 84 °F 95 °F (1951)
Min Temperature 52 °F 60 °F 43 °F (1941)
Degree Days  
Heating Degree Days 2    
Growing Degree Days 14 (Base 50)    
Moisture  
Dew Point 53 °F    
Average Humidity 70    
Maximum Humidity 93    
Minimum Humidity 48    
Precipitation  
Precipitation 0.00 in - - ()
Sea Level Pressure  
Sea Level Pressure 29.99 in    
Wind  
Wind Speed 4 mph (NW)    
Max Wind Speed 14 mph    
Max Gust Speed 21 mph    
Visibility 10 miles    
Events Rain    
Averages and records for this station are not official NWS values.
T = Trace of Precipitation, MM = Missing Value Source: NWS Daily Summary

Daily Weather History Graph

Daily Weather History Graph

Search for Another Location

Airport:

Trip Planner

Search our weather history database for the weather conditions in past years. The results will help you decide how hot, cold, wet, or windy it might be!

Date:

Astronomy

Aug. 14, 2014 Rise Set
Actual Time 6:40 AM EDT 8:27 PM EDT
Civil Twilight 6:11 AM EDT 8:56 PM EDT
Nautical Twilight 5:35 AM EDT 9:32 PM EDT
Astronomical Twilight 4:58 AM EDT 10:09 PM EDT
Moon 10:50 PM EDT (8/14) 11:15 AM EDT (8/14)
Length of Visible Light 14h 45m
Length of Day
13h 47m
Waning Gibbous, 79% of the Moon is Illuminated
Aug 14
Waning Gibbous
Aug 17
Last Quarter
Aug 25
New
Sep 2
First Quarter
Sep 8
Full

Hourly Weather History & Observations

Time (EDT) Temp. Dew Point Humidity Pressure Visibility Wind Dir Wind Speed Gust Speed Precip Events Conditions
12:54 AM 57.9 °F 55.0 °F 90% 29.99 in 9.0 mi Calm Calm - N/A   Clear
1:54 AM 57.0 °F 55.0 °F 93% 29.97 in 6.0 mi Calm Calm - N/A   Clear
2:54 AM 60.1 °F 57.9 °F 93% 29.96 in 10.0 mi Calm Calm - 0.00 in Rain Light Rain
3:54 AM 59.0 °F 55.9 °F 90% 29.96 in 10.0 mi Calm Calm - 0.00 in   Partly Cloudy
4:54 AM 61.0 °F 55.9 °F 83% 29.95 in 10.0 mi NW 6.9 mph - N/A   Clear
5:54 AM 60.1 °F 55.9 °F 86% 29.97 in 10.0 mi NW 8.1 mph - N/A   Clear
6:54 AM 59.0 °F 55.0 °F 87% 29.99 in 10.0 mi NNW 5.8 mph - N/A   Clear
7:54 AM 60.1 °F 54.0 °F 80% 30.00 in 10.0 mi Calm Calm - N/A   Clear
8:54 AM 64.0 °F 55.0 °F 73% 30.02 in 10.0 mi NW 5.8 mph - N/A   Clear
9:54 AM 68.0 °F 54.0 °F 61% 30.03 in 10.0 mi Variable 5.8 mph - N/A   Clear
10:54 AM 70.0 °F 52.0 °F 53% 30.03 in 10.0 mi NW 6.9 mph - N/A   Clear
11:54 AM 71.1 °F 52.0 °F 51% 30.02 in 10.0 mi WNW 5.8 mph - N/A   Clear
12:54 PM 71.1 °F 52.0 °F 51% 30.01 in 10.0 mi WNW 11.5 mph - N/A   Scattered Clouds
1:54 PM 71.1 °F 52.0 °F 51% 30.00 in 10.0 mi NNW 10.4 mph - N/A   Mostly Cloudy
2:54 PM 73.0 °F 53.1 °F 49% 29.99 in 10.0 mi NNW 11.5 mph - N/A   Mostly Cloudy
3:54 PM 73.0 °F 53.1 °F 49% 29.99 in 10.0 mi WNW 11.5 mph 20.7 mph N/A   Scattered Clouds
4:54 PM 72.0 °F 52.0 °F 49% 29.98 in 10.0 mi NW 13.8 mph - N/A   Scattered Clouds
5:54 PM 72.0 °F 51.1 °F 48% 29.98 in 10.0 mi NW 11.5 mph 19.6 mph N/A   Clear
6:54 PM 71.1 °F 52.0 °F 51% 29.98 in 10.0 mi NW 4.6 mph - N/A   Clear
7:54 PM 66.9 °F 48.9 °F 52% 29.98 in 10.0 mi NNW 6.9 mph - N/A   Clear
8:54 PM 60.1 °F 52.0 °F 75% 29.99 in 10.0 mi Calm Calm - N/A   Clear
9:54 PM 55.9 °F 52.0 °F 87% 30.01 in 10.0 mi Calm Calm - N/A   Clear
10:54 PM 54.0 °F 51.1 °F 90% 30.01 in 10.0 mi Calm Calm - N/A   Clear
11:54 PM 52.0 °F 50.0 °F 93% 30.02 in 10.0 mi Calm Calm - N/A   Clear